TimeEDT,TemperatureF,Dew PointF,Humidity,Sea Level PressureIn,VisibilityMPH,Wind Direction,Wind SpeedMPH,Gust SpeedMPH,PrecipitationIn,Events,Conditions,WindDirDegrees,DateUTC
12:56 AM,25.0,10.0,53,30.15,10.0,West,8.1,-,N/A,,Mostly Cloudy,260,2013-04-03 04:56:00
1:56 AM,25.0,10.9,55,30.15,10.0,West,6.9,-,N/A,,Clear,270,2013-04-03 05:56:00
2:56 AM,25.0,12.0,58,30.15,10.0,WNW,6.9,-,N/A,,Clear,300,2013-04-03 06:56:00
3:56 AM,24.1,14.0,65,30.16,10.0,NW,4.6,-,N/A,,Clear,310,2013-04-03 07:56:00
4:56 AM,21.9,15.1,75,30.17,10.0,West,4.6,-,N/A,,Clear,280,2013-04-03 08:56:00
5:56 AM,21.9,15.1,75,30.19,10.0,WNW,4.6,-,N/A,,Clear,290,2013-04-03 09:56:00
6:56 AM,21.0,15.1,78,30.21,10.0,West,5.8,-,N/A,,Clear,280,2013-04-03 10:56:00
7:56 AM,21.9,16.0,78,30.24,10.0,West,6.9,-,N/A,,Clear,270,2013-04-03 11:56:00
8:56 AM,25.0,15.1,66,30.24,10.0,WNW,9.2,-,N/A,,Clear,300,2013-04-03 12:56:00
9:56 AM,28.0,12.0,51,30.24,10.0,NW,11.5,24.2,N/A,,Scattered Clouds,310,2013-04-03 13:56:00
10:56 AM,30.0,12.0,47,30.26,10.0,WNW,10.4,26.5,N/A,,Mostly Cloudy,290,2013-04-03 14:56:00
11:56 AM,30.9,10.0,42,30.27,10.0,NW,15.0,23.0,N/A,,Overcast,310,2013-04-03 15:56:00
12:56 PM,30.9,10.0,42,30.28,10.0,WNW,15.0,29.9,N/A,,Overcast,290,2013-04-03 16:56:00
1:56 PM,32.0,12.0,44,30.27,10.0,NW,11.5,25.3,N/A,,Mostly Cloudy,320,2013-04-03 17:56:00
2:47 PM,30.2,17.6,60,30.22,2.0,NW,16.1,31.1,0.00,Snow,Light Snow,320,2013-04-03 18:47:00
2:56 PM,32.0,12.9,45,30.29,9.0,WNW,20.7,27.6,0.00,,Mostly Cloudy,290,2013-04-03 18:56:00
3:06 PM,28.4,15.8,59,30.24,1.8,WNW,20.7,32.2,0.00,Snow,Light Snow,290,2013-04-03 19:06:00
3:13 PM,28.4,17.6,64,30.24,2.0,WNW,12.7,27.6,0.00,Snow,Light Snow,300,2013-04-03 19:13:00
3:21 PM,30.2,15.8,55,30.23,9.0,NW,15.0,23.0,0.00,,Overcast,320,2013-04-03 19:21:00
3:56 PM,30.9,12.0,46,30.31,10.0,WNW,13.8,26.5,0.00,,Mostly Cloudy,300,2013-04-03 19:56:00
4:56 PM,30.9,9.0,40,30.33,10.0,West,15.0,26.5,N/A,,Mostly Cloudy,280,2013-04-03 20:56:00
5:56 PM,30.0,8.1,40,30.36,10.0,WNW,13.8,21.9,N/A,,Mostly Cloudy,290,2013-04-03 21:56:00
6:56 PM,28.9,9.0,43,30.39,10.0,WNW,11.5,-,N/A,,Mostly Cloudy,290,2013-04-03 22:56:00
7:56 PM,27.0,9.0,47,30.40,10.0,NW,11.5,17.3,N/A,,Clear,320,2013-04-03 23:56:00
8:56 PM,26.1,9.0,49,30.40,10.0,NW,8.1,-,N/A,,Clear,320,2013-04-04 00:56:00
9:56 PM,24.1,10.0,55,30.43,10.0,WNW,5.8,-,N/A,,Clear,290,2013-04-04 01:56:00
10:56 PM,23.0,10.9,60,30.37,10.0,North,5.8,-,N/A,,Clear,360,2013-04-04 02:56:00
11:56 PM,21.9,10.0,60,30.36,10.0,Calm,Calm,-,N/A,,Clear,0,2013-04-04 03:56:00